Theta_e
317 316 319 321 322 323 325 331 332 330 329 320 315 319 316 319 323 318 320 320 319 320 317 319 325 325 325 332 333 333 332 334 336 332 332 338 339 340 341 339 338 337 336 338 339 339 339 340 339 339 338 337 337 336 335 334 333 332 332 331 329 327 325 328 328 328 327 324 320 319 327 332 332 332 331 332 332 332 333 333 334 334 332 324 321 328 329 328 329 329 329 328 325 324 325 326 328
317 317 322 323 322 322 327 338 332 325 327 316 313 319 315 322 325 320 324 321 321 320 318 324 330 330 328 330 331 333 332 333 334 333 336 338 340 341 341 339 338 337 337 337 338 339 339 340 338 338 337 337 336 336 335 334 332 332 332 331 330 327 325 327 328 327 326 323 319 318 324 331 332 332 331 333 333 332 333 334 334 333 331 322 321 328 328 328 329 328 329 328 326 324 326 328 329
317 320 325 324 324 326 334 337 328 324 323 316 313 317 318 325 324 322 323 320 321 319 318 324 325 325 328 333 333 330 329 332 335 335 337 340 341 341 342 340 337 338 337 337 338 338 339 339 338 337 337 336 336 335 335 333 332 331 332 331 329 327 326 327 328 327 326 325 321 318 323 330 332 332 331 331 333 334 333 334 333 332 329 319 320 328 327 328 328 328 329 329 329 327 327 328 328
319 323 324 325 333 337 339 334 331 326 319 316 314 315 322 325 323 321 320 320 321 319 320 322 320 319 332 338 331 333 333 331 334 337 338 340 341 341 342 340 337 337 336 336 337 338 338 338 337 337 336 336 336 335 334 332 332 331 331 331 329 328 327 327 328 327 326 326 323 320 324 329 332 332 331 330 332 334 333 333 331 329 326 316 320 328 327 328 328 328 328 328 329 329 329 329 328
321 324 323 325 335 337 332 325 332 328 316 319 317 317 323 322 323 322 319 320 319 320 322 322 320 319 330 333 328 337 336 333 334 335 338 339 341 341 341 340 338 337 337 336 336 338 337 337 337 336 336 335 335 334 333 332 331 331 331 331 329 329 328 326 327 328 327 326 322 320 323 327 331 331 331 330 332 332 331 331 329 328 323 315 322 328 327 328 328 328 327 326 327 329 330 329 329
322 324 325 323 325 329 328 318 319 322 319 322 320 320 323 320 322 322 318 318 318 320 321 321 322 324 332 329 327 335 333 335 336 335 338 339 342 342 341 341 338 337 337 336 336 337 337 337 336 336 336 335 335 334 332 332 331 331 330 331 330 329 328 326 327 329 327 326 322 319 319 323 328 330 330 330 330 330 330 330 329 327 322 317 322 326 327 327 328 327 325 326 326 327 329 328 327
321 324 329 328 325 326 330 321 316 319 318 320 323 322 321 319 319 320 318 319 318 318 319 321 323 327 329 325 326 332 332 334 335 336 338 339 341 341 342 342 339 338 337 336 336 337 336 336 336 336 335 334 334 333 332 331 332 332 330 331 331 330 328 326 327 328 328 327 323 319 315 317 323 327 329 329 329 329 329 329 329 325 323 323 323 324 327 327 327 325 324 325 325 325 327 328 327
322 324 332 335 332 329 328 322 319 322 317 315 321 320 320 320 318 320 319 320 319 318 318 318 323 324 322 327 332 332 333 334 334 335 337 339 338 339 341 341 340 338 338 337 337 337 336 335 335 336 335 334 333 333 332 331 331 332 331 331 332 331 329 326 327 328 328 327 325 320 315 314 318 325 327 328 328 328 327 327 327 323 324 326 323 322 326 326 326 324 324 325 324 324 324 326 326
321 322 330 330 330 333 325 317 316 318 317 317 318 318 321 318 318 320 319 319 318 318 318 316 322 321 323 336 338 331 334 336 334 334 336 338 336 337 340 341 341 340 340 339 338 338 336 334 335 335 334 334 333 332 332 331 330 331 332 332 332 331 330 328 327 328 328 328 326 323 318 314 316 323 327 327 327 326 326 325 324 324 324 325 322 322 324 326 325 323 323 324 324 323 323 324 324
325 323 327 330 335 331 317 315 316 316 315 317 317 320 320 316 319 320 319 318 317 319 317 318 323 322 328 339 335 329 333 336 336 335 336 337 336 337 339 341 341 340 341 340 339 338 337 335 335 335 333 333 333 333 332 331 330 330 332 332 332 332 331 330 329 328 328 328 327 325 322 317 316 320 322 324 325 325 325 324 323 324 324 323 321 320 323 325 325 323 322 322 322 323 322 322 323
331 328 331 332 332 325 317 317 315 315 315 315 315 317 317 316 318 317 318 317 316 320 316 319 325 326 329 332 331 330 332 335 336 335 334 335 336 337 338 340 341 340 341 340 339 338 337 336 336 336 333 332 332 333 332 331 330 330 331 333 333 332 331 331 330 329 328 328 328 327 324 319 315 315 319 321 323 323 323 322 322 321 320 321 319 319 323 325 324 322 321 322 321 321 321 321 322
331 331 339 329 324 326 324 320 315 317 314 314 315 314 315 315 316 314 318 317 318 320 317 319 322 326 329 326 328 330 333 335 335 334 332 334 336 337 337 339 341 340 341 341 340 338 337 337 337 337 334 333 332 332 332 332 330 330 331 333 333 332 332 332 331 329 328 328 328 328 326 321 316 314 318 318 318 319 318 316 317 316 317 319 317 319 324 324 324 322 320 320 320 320 321 321 321
332 334 339 323 323 329 324 318 317 319 314 317 317 314 315 314 316 315 318 319 318 318 317 317 318 327 329 324 327 331 333 333 334 334 332 336 336 337 338 338 341 340 341 341 340 338 338 337 337 337 336 335 334 332 331 332 331 330 332 332 333 332 332 332 331 329 328 328 328 328 327 324 319 314 313 312 311 311 309 307 309 311 312 315 314 318 323 323 323 321 320 319 319 319 320 320 320
329 338 341 322 324 326 322 318 317 318 316 320 318 314 315 314 316 315 316 318 317 318 315 313 318 328 328 326 331 331 333 332 332 332 333 337 337 338 338 339 341 340 341 341 340 339 338 338 337 338 337 337 336 333 331 331 331 330 331 332 332 332 332 332 331 330 328 328 328 328 327 325 322 316 310 307 307 306 304 304 305 306 306 309 312 318 322 322 321 320 320 319 319 319 319 320 319
326 343 344 327 322 320 321 320 319 320 317 319 317 315 316 315 316 314 315 318 317 316 313 312 317 321 324 331 336 331 331 331 331 332 334 337 338 340 339 339 341 341 341 340 340 339 338 338 337 337 337 337 337 336 332 330 331 330 331 332 332 332 332 332 331 330 329 328 328 328 327 325 324 321 312 306 307 307 307 307 306 305 304 304 310 318 321 321 321 320 319 319 319 319 319 319 319
334 347 336 323 319 316 318 320 321 321 317 318 316 316 317 314 315 315 314 318 317 315 317 315 314 317 320 328 329 327 329 331 333 334 335 338 340 341 340 341 341 340 341 340 340 339 338 338 338 337 337 338 337 337 334 329 330 330 331 332 332 332 332 332 331 331 329 328 328 328 327 326 325 324 317 307 307 310 311 311 310 309 307 306 310 316 320 321 321 320 319 319 319 319 319 319 319
336 340 329 321 319 316 316 319 320 320 319 319 314 316 318 314 315 314 312 316 316 317 321 317 318 326 329 329 324 323 329 331 334 334 335 337 339 341 341 341 341 341 341 340 341 339 339 339 338 338 337 337 337 338 336 331 328 330 332 332 332 332 332 332 331 331 330 329 328 328 327 326 325 324 320 310 308 313 315 315 314 312 311 309 310 314 319 321 320 319 319 319 319 319 319 319 319
328 331 328 321 322 319 316 320 320 320 319 317 315 317 318 316 316 314 313 316 316 318 320 320 327 329 328 329 325 327 330 332 335 334 334 335 336 339 339 341 341 341 341 341 340 338 339 339 339 339 338 338 337 338 337 333 328 329 332 332 333 332 332 332 332 331 330 329 328 328 327 326 324 324 322 313 308 313 316 317 317 316 313 310 309 313 317 320 320 319 318 318 318 318 318 319 319
328 335 328 324 331 320 313 318 317 317 316 316 316 316 317 316 316 314 314 315 316 318 317 322 338 334 327 329 329 330 330 332 335 333 333 334 334 335 336 339 340 341 341 341 340 338 338 339 339 339 339 338 337 337 337 336 330 328 331 332 333 333 333 332 332 332 330 329 328 328 327 326 325 324 323 316 309 311 316 318 318 317 315 312 310 312 314 317 320 319 318 317 318 318 318 318 318
328 336 327 328 333 320 314 316 316 318 315 316 316 314 316 315 314 314 315 316 316 320 319 320 333 339 332 329 329 330 330 331 333 333 332 332 333 333 334 336 338 340 340 340 340 338 338 338 338 338 339 338 338 337 337 337 333 329 330 332 333 333 333 332 332 332 331 329 329 328 328 326 325 324 325 320 311 310 315 317 317 317 316 315 314 312 311 314 317 318 318 316 316 317 318 318 318
320 328 328 326 322 317 316 315 317 317 313 315 316 314 315 314 314 313 315 316 315 318 319 320 324 338 333 328 328 329 330 331 330 331 331 331 332 332 333 334 336 338 338 338 339 339 339 338 337 337 339 338 338 338 337 337 336 332 329 331 333 333 333 333 332 332 332 330 329 328 328 327 325 325 325 323 315 311 315 317 317 318 318 316 314 312 310 311 313 315 316 315 315 316 317 318 317
317 318 322 321 316 316 316 316 318 315 312 316 315 315 315 314 314 315 316 316 318 317 316 320 320 332 333 328 327 328 328 329 329 329 329 330 331 331 332 332 333 335 337 337 337 338 339 339 337 337 338 338 338 337 338 337 337 336 331 330 332 333 333 332 332 332 332 330 329 328 328 327 326 325 325 324 319 313 315 317 317 317 318 316 314 313 310 310 312 313 314 314 314 315 317 317 317
319 315 316 318 316 316 316 316 318 316 315 317 316 315 315 316 316 316 316 315 321 320 316 318 314 323 330 328 326 328 327 327 328 328 328 328 330 330 330 330 331 332 335 337 336 336 337 337 336 336 337 337 337 337 338 337 337 337 335 332 331 332 333 333 332 332 332 330 329 328 328 327 326 325 325 325 321 315 314 316 316 317 317 316 314 314 311 310 311 312 313 313 314 315 316 317 317
323 318 315 316 315 317 316 315 318 318 318 317 315 315 315 318 316 314 315 317 322 318 315 313 308 317 327 327 326 326 326 326 327 328 328 328 328 329 330 330 330 330 332 335 335 335 335 335 335 336 336 336 337 337 337 336 336 337 337 335 332 332 333 333 332 332 331 329 329 328 328 328 327 326 325 325 322 316 315 316 316 316 317 316 314 315 313 310 310 312 313 313 314 315 316 317 317
322 318 316 317 316 316 316 316 319 319 318 316 315 315 316 317 315 314 317 320 322 316 315 314 311 320 327 329 328 325 324 325 326 327 327 327 327 327 328 330 330 329 330 332 333 334 332 333 334 335 335 335 336 335 337 337 335 337 338 336 335 333 333 332 331 331 331 329 329 328 328 328 327 327 325 325 323 318 314 315 316 316 316 316 315 315 314 311 310 311 312 313 314 315 316 316 316
318 318 317 317 316 315 315 316 319 318 318 315 315 316 316 316 314 316 321 321 319 317 320 321 320 328 329 328 328 323 323 324 324 326 326 327 327 327 327 328 329 329 329 330 331 331 330 332 333 334 334 335 334 334 336 337 336 337 338 336 336 336 334 333 331 331 331 330 329 328 328 328 328 328 326 325 325 320 315 315 316 316 316 316 316 315 313 311 309 310 312 312 313 314 315 315 315
317 318 317 317 316 315 316 316 317 318 318 316 317 317 316 316 315 318 322 318 316 320 323 320 323 333 326 324 326 322 322 323 323 324 324 326 326 327 328 327 328 328 329 331 330 330 330 332 333 333 334 334 334 333 334 336 336 336 337 335 335 336 336 334 332 331 331 331 330 330 329 329 329 328 327 326 326 322 317 316 316 316 316 316 316 314 312 310 309 309 311 312 313 314 314 314 315
316 318 317 317 317 315 315 316 316 316 316 316 318 317 316 316 316 321 319 315 315 320 324 321 324 330 322 321 323 320 319 320 323 323 323 324 325 327 327 328 328 327 329 329 329 330 330 331 332 332 332 334 334 334 333 335 335 335 335 334 335 336 336 336 334 333 331 331 331 331 331 331 330 329 328 327 327 324 319 317 317 316 317 316 315 314 311 309 308 309 310 311 312 313 313 313 313
317 321 320 317 319 320 316 316 316 316 316 317 317 315 317 317 319 322 318 316 317 318 322 322 323 324 320 319 320 318 317 317 320 321 322 323 324 326 327 328 328 328 329 328 329 330 330 330 331 331 331 333 334 334 333 334 334 334 334 334 334 335 336 337 336 334 332 332 332 332 332 331 331 330 329 328 327 326 321 319 319 317 317 316 314 314 311 308 307 308 309 310 311 311 311 311 312
317 319 322 321 321 322 317 315 316 315 316 317 314 313 320 322 319 319 316 315 317 316 320 319 319 320 318 317 317 319 315 313 316 319 321 322 322 324 325 326 328 329 330 330 330 329 330 330 330 330 330 331 332 334 334 334 334 334 334 334 334 334 335 336 336 335 333 333 333 332 332 332 332 331 329 328 327 326 323 322 321 319 317 316 315 314 311 308 307 308 308 309 310 310 310 309 310
318 314 323 326 319 321 321 316 316 315 315 316 313 313 321 323 320 317 315 315 317 319 321 319 318 317 317 317 316 317 315 312 314 317 319 320 320 322 322 324 326 329 330 330 330 330 330 330 330 330 329 329 330 331 333 333 333 334 333 333 332 333 334 334 334 335 334 334 334 333 332 332 332 332 331 328 326 325 324 323 322 320 318 316 314 313 311 309 307 307 307 308 308 308 308 308 309
324 315 322 324 316 322 325 317 317 317 315 315 315 316 320 321 321 320 316 316 318 320 324 322 320 318 318 319 317 317 314 310 311 314 317 318 319 320 321 322 323 327 329 330 330 330 330 330 330 329 329 328 327 329 331 332 332 333 332 331 331 332 332 333 333 334 335 334 334 334 333 332 332 332 331 329 327 325 324 322 322 321 318 315 313 310 310 310 308 306 306 307 307 306 306 306 306
328 320 322 323 316 320 322 318 318 319 318 316 314 317 321 320 319 319 317 318 318 320 324 323 322 319 317 317 317 317 316 313 311 311 314 317 318 319 320 320 321 324 327 329 330 330 330 330 330 329 328 328 327 328 330 331 332 332 332 331 331 331 331 332 332 332 334 335 335 334 333 333 332 332 331 330 328 326 325 323 321 321 318 315 312 309 309 310 308 306 304 304 305 305 304 304 304
322 320 320 323 321 319 320 321 318 318 318 317 316 316 320 321 319 320 319 317 318 320 323 323 322 319 317 316 316 317 317 319 315 311 312 316 318 319 320 320 321 323 326 328 329 329 330 330 329 329 328 327 326 327 329 330 331 330 330 330 331 331 331 331 331 331 333 334 335 333 333 333 332 331 331 331 329 327 325 324 322 320 318 315 311 309 309 309 307 305 304 302 303 304 304 303 302
319 319 319 319 319 318 320 322 318 317 317 317 318 317 320 321 319 319 317 314 317 321 322 321 320 318 317 315 316 316 316 318 315 311 313 314 316 318 319 320 321 323 326 327 328 329 329 329 329 328 327 327 326 327 328 329 329 328 327 327 329 330 331 331 331 331 331 333 333 330 330 332 333 332 331 329 328 327 325 325 324 320 318 315 311 309 308 306 305 304 303 301 301 303 304 303 301
322 325 328 325 321 318 319 320 316 316 317 319 319 318 319 320 318 318 316 312 313 317 318 317 316 316 315 314 315 315 316 317 313 311 313 313 314 317 319 321 321 322 325 327 328 328 328 328 328 327 326 326 326 326 326 326 326 326 326 326 327 329 331 331 331 331 331 331 331 328 329 331 333 333 330 328 328 328 326 325 324 321 319 315 312 311 308 306 305 303 302 300 299 299 301 301 300
323 324 328 327 322 318 317 319 318 316 317 320 320 318 318 317 316 317 314 312 312 314 314 314 314 314 313 314 314 315 316 315 311 311 313 313 314 316 318 321 322 322 324 326 327 327 327 327 327 326 326 326 325 325 324 324 324 324 324 325 326 328 329 330 330 330 330 330 330 329 330 332 332 332 330 329 329 329 327 326 324 322 319 316 314 314 312 307 303 302 299 299 298 297 297 297 298
324 325 327 324 320 317 316 317 320 316 316 321 320 318 319 317 316 316 314 313 315 315 314 313 313 313 312 313 314 315 315 314 312 312 312 313 314 314 317 320 321 322 323 324 325 326 326 326 326 326 325 325 324 324 323 323 323 323 323 323 324 325 327 328 328 329 329 329 330 330 331 331 331 331 330 329 329 328 327 326 324 322 318 316 314 313 310 304 300 300 299 297 297 297 296 295 296
330 327 324 321 318 317 317 319 322 320 318 324 324 320 320 317 315 316 314 314 314 313 313 314 314 313 312 313 314 315 315 316 316 315 312 312 313 314 316 319 320 322 322 322 323 324 324 324 324 324 324 324 323 323 322 322 321 321 322 322 322 324 324 325 326 327 327 327 328 329 330 330 329 330 329 329 328 327 327 325 324 322 319 317 315 310 305 301 299 299 299 297 295 294 294 293 295
330 327 320 320 321 319 318 320 321 319 316 321 324 321 319 317 318 320 317 314 314 313 313 313 314 314 314 313 314 316 318 319 321 320 314 311 312 314 316 318 320 320 321 321 322 322 322 322 323 323 322 322 322 321 320 320 320 320 320 321 321 322 323 323 323 324 325 325 326 326 327 328 328 328 329 328 328 327 326 325 323 323 321 319 316 311 305 301 299 298 298 297 295 293 291 291 293
324 336 333 325 324 322 321 322 320 317 316 320 320 317 324 328 328 332 329 322 319 317 316 317 316 313 313 314 316 319 320 320 322 325 322 313 311 314 316 317 319 320 320 320 321 321 321 321 321 321 321 321 320 320 319 319 319 319 319 319 319 319 320 320 320 320 321 322 322 322 322 324 325 326 327 327 328 327 326 324 323 323 322 319 315 313 308 302 299 298 297 296 295 294 292 291 291
316 330 333 326 328 328 327 328 324 318 316 318 316 314 328 338 331 330 334 331 327 326 325 329 327 315 312 316 317 319 322 322 321 322 322 315 310 313 315 316 317 319 320 320 320 320 320 321 320 320 320 320 319 318 318 318 317 317 317 317 317 316 316 316 317 317 318 319 319 318 318 319 322 322 324 325 326 326 326 325 324 324 322 319 315 312 307 302 298 297 297 296 296 296 294 291 290
312 317 325 329 335 333 329 325 319 318 315 314 315 314 321 328 323 321 323 320 319 320 322 329 330 320 317 321 321 321 320 321 322 322 323 317 311 312 313 315 317 318 319 319 320 320 320 320 320 319 319 319 318 317 317 316 316 316 316 316 316 315 315 315 315 315 316 316 317 317 318 320 321 321 322 323 324 325 325 325 324 323 320 317 313 309 305 302 300 299 298 298 298 296 294 292 290
313 318 326 332 332 331 333 327 319 322 319 319 324 322 319 323 323 319 315 314 315 316 319 322 322 321 324 327 328 325 320 321 327 332 333 320 310 312 313 314 316 317 318 318 319 319 319 319 318 318 318 317 317 316 316 315 315 315 315 315 315 315 315 314 315 314 314 315 315 317 319 321 321 321 322 322 323 323 323 323 321 320 318 315 311 307 306 305 302 300 298 298 297 295 295 294 291
319 320 327 330 330 333 339 335 329 325 317 321 329 320 317 327 331 323 315 316 320 321 322 320 318 322 326 328 330 329 325 326 333 341 338 319 309 313 315 315 316 316 317 317 317 318 317 317 317 316 316 316 316 315 315 314 314 314 314 314 314 314 314 313 313 313 313 314 315 317 319 320 320 319 320 321 321 321 321 321 320 319 317 314 311 308 307 306 303 300 298 297 296 296 296 296 293
321 321 326 328 331 334 335 332 329 324 316 323 330 319 315 323 330 324 314 318 325 322 319 317 318 323 325 327 331 330 330 334 339 338 325 312 311 314 314 315 316 315 316 316 316 316 316 316 315 315 315 315 315 314 314 314 313 313 313 313 313 313 313 312 312 312 312 313 313 315 317 319 319 318 318 319 319 320 320 320 320 319 318 315 312 309 307 305 303 300 300 299 298 297 296 295 294
320 326 331 329 331 334 336 335 328 318 318 328 330 320 314 317 328 327 317 321 324 318 319 321 324 330 330 331 332 330 334 337 339 337 320 308 311 313 313 315 314 314 315 315 315 315 315 315 314 314 314 314 314 313 313 313 313 313 313 313 312 312 311 311 311 311 311 312 312 314 315 317 318 317 317 318 318 319 319 320 320 319 317 314 312 309 307 307 305 302 300 300 298 297 297 295 295
323 331 332 325 328 332 334 334 327 317 322 330 329 322 314 314 326 327 320 323 321 318 323 326 330 335 334 333 330 328 331 330 332 340 329 314 313 313 312 314 313 314 314 314 314 314 314 314 314 313 313 313 313 313 313 313 313 313 312 312 312 311 311 310 311 311 310 311 311 312 314 315 316 316 316 316 317 318 318 319 318 317 315 313 312 311 309 309 307 303 300 298 297 297 296 295 294
326 326 326 318 321 325 325 329 327 322 322 320 322 323 317 316 322 322 321 322 321 322 322 325 332 334 330 332 333 331 329 330 332 337 336 330 320 312 312 314 313 314 314 314 314 314 314 314 313 313 313 313 313 312 313 312 312 312 312 312 311 311 311 310 310 311 310 310 311 312 312 313 315 315 314 315 316 316 317 317 317 316 314 313 312 311 310 309 307 304 301 299 298 296 295 294 294
322 320 322 319 321 320 322 327 322 321 323 318 318 321 320 322 321 321 324 318 318 323 320 323 329 327 328 333 334 333 329 331 334 334 341 339 318 308 312 314 313 314 314 314 314 314 314 314 313 313 313 313 313 312 312 312 312 312 312 311 311 311 311 311 311 310 310 310 310 312 312 313 314 314 314 315 316 316 315 316 317 316 315 313 312 311 310 310 309 306 304 301 299 297 295 295 295
321 320 318 318 324 324 323 326 321 320 324 319 316 320 327 327 318 319 322 319 322 326 322 324 323 323 331 331 327 330 333 333 332 333 339 329 309 307 313 313 313 315 314 314 314 314 314 313 313 313 313 312 312 312 312 312 312 312 312 311 311 311 311 311 311 310 310 310 310 311 312 313 313 314 315 316 316 315 314 314 315 315 314 313 313 312 310 310 309 307 304 301 299 297 296 295 294
320 319 315 316 322 325 321 319 322 323 323 321 319 323 330 324 317 317 317 318 327 328 324 324 322 322 330 332 328 329 335 336 331 333 341 325 306 307 312 311 313 314 313 314 313 313 313 313 313 313 313 313 312 312 312 312 312 311 311 311 310 311 311 310 311 310 310 310 310 310 311 313 313 312 314 315 315 315 315 315 314 313 313 313 314 314 312 311 310 308 305 302 299 298 296 296 294
319 318 322 322 319 325 323 314 316 318 317 320 319 322 324 317 315 320 316 315 323 325 323 322 322 323 322 329 334 333 335 337 332 333 339 325 307 307 311 312 313 312 312 314 313 313 313 312 313 313 313 313 312 312 312 311 312 311 311 311 310 310 310 310 310 310 310 310 310 310 310 311 312 312 312 314 315 315 315 314 313 312 312 312 313 315 313 312 311 308 305 303 302 300 298 296 294
321 322 325 320 314 322 326 319 320 320 318 321 318 317 320 315 317 324 319 313 318 322 323 322 324 324 318 322 333 338 336 335 332 328 328 316 304 307 312 312 313 313 312 313 312 313 313 312 313 312 312 313 312 312 312 311 311 311 311 311 310 310 310 310 310 309 310 310 309 310 310 311 311 311 311 313 316 316 314 313 312 311 312 312 312 313 312 311 310 308 305 304 303 302 299 297 294
321 323 321 320 320 323 322 319 322 321 318 323 322 316 315 315 318 321 316 315 320 321 321 322 322 322 319 319 325 334 332 330 332 332 336 324 306 308 313 313 313 313 312 313 312 312 312 312 312 312 312 312 312 312 312 311 311 311 310 310 310 310 309 309 309 309 309 310 309 309 310 311 311 311 311 312 315 316 314 312 311 310 311 311 312 312 312 311 309 308 305 303 303 301 299 297 296
318 319 316 320 325 325 323 319 319 320 318 321 323 319 317 319 320 319 315 317 320 317 318 320 318 318 319 315 319 328 329 330 334 336 346 334 310 309 314 313 313 313 312 312 312 312 312 311 311 312 312 312 311 312 311 311 311 310 310 310 309 309 309 308 308 308 309 309 309 309 309 311 311 311 310 312 314 315 313 312 311 310 310 310 310 311 310 310 309 308 306 304 303 301 299 298 298
320 320 319 320 320 320 323 321 319 322 324 323 321 317 323 327 321 318 318 318 318 317 318 320 319 318 320 319 324 327 326 334 338 339 350 332 309 310 315 312 312 312 311 311 311 311 312 311 311 311 311 312 311 311 311 310 310 310 310 309 309 308 308 308 307 308 308 308 308 309 309 310 310 310 310 311 312 312 312 312 311 310 309 309 309 309 309 309 309 309 307 305 303 302 300 300 299
319 319 320 320 320 320 320 319 318 319 321 324 321 315 322 329 322 319 322 322 322 320 318 322 325 325 328 331 330 324 324 336 339 341 348 325 307 312 315 312 313 312 311 311 310 311 311 311 311 311 311 311 311 311 311 310 310 310 309 309 309 308 308 307 307 307 307 307 308 308 309 309 309 310 310 310 311 311 311 311 310 309 308 308 307 308 309 309 309 309 307 305 303 302 300 299 298
Wind_Speed
5 2 1 2 2 2 1 4 2 2 3 3 0 1 1 2 1 3 1 1 2 1 2 2 3 4 4 5 8 7 3 2 4 4 3 4 16 24 18 19 22 21 21 20 19 19 17 17 16 16 15 15 15 15 15 15 14 14 14 14 14 14 14 15 15 16 17 18 18 19 20 20 20 19 19 18 15 15 16 17 18 19 20 20 22 24 23 23 23 23 23 23 25 25 25 26 26
3 1 1 2 2 2 1 3 3 3 5 3 1 2 1 2 3 4 3 2 3 2 1 4 8 9 8 8 7 5 4 3 2 3 1 9 20 22 18 19 22 21 21 20 19 19 18 17 17 16 15 15 15 15 15 14 14 14 14 14 14 14 14 14 15 16 17 18 18 19 20 20 19 18 19 17 15 16 17 18 20 20 20 21 22 23 23 23 23 23 23 23 24 25 25 25 24
2 1 3 3 1 3 1 4 2 1 4 2 3 2 1 3 4 5 6 5 5 4 4 5 7 6 6 6 3 3 1 4 1 2 3 14 17 19 20 19 21 20 21 21 19 19 19 18 17 16 15 15 15 15 14 14 14 14 14 14 14 14 13 13 14 16 17 17 18 18 19 19 18 18 17 16 16 17 18 19 19 19 19 20 22 23 23 23 23 22 22 22 23 23 23 22 23
2 2 3 3 1 4 3 3 2 4 3 3 2 4 1 6 6 5 5 4 4 2 3 3 4 2 5 6 2 3 2 1 1 2 5 12 14 20 22 20 22 20 21 21 19 19 18 18 17 17 16 15 15 15 14 14 14 14 14 14 14 13 13 13 14 15 16 17 17 17 18 18 18 18 17 17 16 17 18 18 19 18 18 19 22 23 22 22 23 22 22 23 22 22 21 21 21
2 2 3 3 2 1 2 2 2 5 4 4 3 4 4 6 7 5 4 5 4 1 3 3 2 2 4 4 2 2 3 2 2 3 7 13 18 23 22 22 22 20 21 20 19 19 18 18 17 16 16 15 15 15 15 14 14 13 13 14 13 13 12 13 14 14 16 16 16 17 17 17 17 18 18 18 17 16 17 17 18 19 19 20 22 22 22 22 21 21 23 25 24 22 21 21 22
2 4 4 5 2 1 2 2 3 1 4 5 4 4 6 6 7 6 2 2 3 2 4 4 3 2 3 2 1 3 2 2 4 7 11 18 22 22 22 22 21 21 21 20 20 18 18 18 17 16 16 16 15 15 15 15 14 13 13 14 13 12 12 12 13 14 15 16 16 16 16 16 17 18 18 18 17 17 16 17 18 18 18 20 21 22 21 21 20 21 24 26 25 23 21 21 23
2 3 4 5 2 1 3 3 4 2 2 5 6 5 7 6 6 7 4 2 2 4 4 3 5 6 2 1 2 2 2 3 6 11 16 23 23 21 22 21 21 21 20 20 19 18 18 17 17 17 16 16 16 16 15 15 14 13 13 13 13 12 12 12 13 13 14 15 16 16 16 16 17 18 18 18 17 17 16 17 17 17 18 20 20 22 21 20 20 22 24 24 25 25 23 22 22
2 2 1 4 2 3 4 2 2 2 1 3 4 6 9 7 6 6 4 2 1 1 4 2 4 6 1 1 2 3 1 6 8 15 22 25 23 20 21 22 22 21 19 20 19 18 17 17 17 17 16 16 15 16 15 15 14 14 13 13 13 12 12 12 12 12 13 14 15 16 15 15 16 17 17 17 17 16 16 17 17 17 19 19 19 22 21 20 20 22 23 23 23 24 24 22 22
3 2 1 3 2 3 3 2 1 1 0 2 3 4 6 7 6 6 4 1 2 2 2 4 3 5 1 4 1 5 1 8 12 17 23 25 22 19 20 22 22 21 20 19 19 19 18 17 17 17 16 15 15 15 15 15 14 14 13 13 13 13 12 11 11 12 12 13 14 15 15 15 16 17 17 17 17 17 17 17 17 18 18 18 19 21 21 20 20 22 22 22 23 22 23 22 23
3 3 1 2 2 4 2 0 0 1 2 3 3 5 7 6 5 5 5 3 2 3 1 2 4 4 4 3 1 4 2 11 16 18 22 25 22 19 19 21 21 20 20 19 20 20 18 18 17 17 16 15 15 15 15 15 14 14 13 13 13 13 12 11 11 11 12 13 14 14 14 14 15 16 16 16 16 16 17 17 17 17 17 17 18 20 21 20 20 21 21 22 22 22 21 21 22
3 4 3 3 3 3 2 2 1 1 1 1 1 4 7 6 6 3 4 4 1 3 2 2 4 4 4 2 2 2 6 14 18 19 21 24 21 20 17 20 21 19 19 19 21 21 19 18 17 17 16 16 16 15 15 15 15 14 13 13 13 13 12 11 11 11 12 13 13 14 14 13 13 14 15 16 16 16 16 16 16 16 17 17 18 20 21 20 19 20 21 21 22 21 21 21 21
3 3 4 4 2 3 4 4 4 2 1 2 3 5 4 6 7 4 5 5 2 3 2 1 5 5 5 1 3 1 8 14 18 17 19 22 21 19 16 19 22 20 19 18 21 22 20 19 18 18 17 16 16 16 16 16 16 15 14 13 13 13 12 12 12 12 12 12 13 13 13 13 12 13 15 15 15 16 16 16 16 16 17 18 18 21 21 19 18 19 21 21 21 20 21 22 22
3 2 5 2 2 4 4 4 4 2 1 4 4 4 5 6 6 8 7 6 4 4 3 5 6 5 4 1 2 2 7 14 19 17 19 21 20 18 16 19 22 22 20 18 21 22 22 21 19 19 18 17 16 16 16 16 16 16 15 14 14 13 12 12 12 12 12 12 12 12 12 12 12 12 14 16 16 16 15 16 16 16 17 17 19 21 20 19 19 19 21 21 20 20 21 21 21
3 3 5 2 1 4 5 3 2 3 2 6 3 3 5 3 5 8 8 7 5 5 3 4 7 6 2 1 1 2 9 15 19 19 19 17 16 16 17 22 24 23 21 19 20 23 23 22 21 20 19 18 17 17 16 17 17 17 16 15 15 14 13 13 13 13 13 13 12 11 11 11 11 11 13 15 16 16 16 16 16 16 16 17 19 19 19 21 21 19 20 20 20 20 21 21 21
2 2 5 3 2 2 4 2 4 5 4 5 3 4 4 1 4 6 6 8 6 5 1 1 4 3 3 5 4 7 16 20 20 19 18 15 14 15 20 25 25 24 21 19 20 23 24 22 21 20 19 19 18 18 17 18 18 18 17 16 16 15 14 14 14 14 13 13 11 11 11 11 11 11 12 14 16 16 16 16 16 16 16 17 18 18 20 22 21 19 20 20 20 21 21 21 20
3 3 4 3 1 1 4 2 4 4 4 5 2 4 5 1 3 4 4 7 3 2 2 1 2 1 5 8 5 13 24 24 22 19 18 17 16 18 22 25 24 23 20 19 20 22 23 23 22 21 20 19 19 19 17 18 19 19 18 17 17 16 16 15 14 14 14 13 12 11 11 11 12 11 12 14 15 16 16 16 16 16 16 17 18 20 22 22 20 19 18 19 20 20 21 21 21
3 4 3 2 2 2 3 4 5 4 4 5 3 4 6 1 1 2 1 5 5 2 4 1 3 4 2 3 4 19 29 26 24 20 19 20 19 20 22 24 24 22 21 20 20 21 22 22 22 22 21 20 20 20 18 18 20 20 19 18 18 17 16 15 15 15 15 14 13 12 11 11 12 12 13 14 14 15 16 16 16 16 16 17 18 21 22 21 20 18 18 18 18 19 20 21 21
4 3 3 1 3 3 4 6 6 4 5 7 6 5 8 4 2 1 2 6 4 3 5 3 4 6 4 2 9 26 30 27 25 23 21 20 20 20 21 24 25 24 23 22 22 22 22 22 22 22 22 22 21 21 20 19 20 21 20 19 18 18 17 17 16 16 16 15 14 12 11 11 12 13 13 14 14 15 15 15 15 16 16 17 19 20 21 21 20 18 17 17 17 18 19 21 21
3 3 3 3 5 4 5 6 5 3 5 8 6 5 6 6 5 3 2 1 2 4 2 4 5 5 5 6 17 26 28 27 26 24 23 22 22 22 21 23 24 25 26 25 25 23 23 22 21 22 23 23 22 22 21 20 21 22 21 20 19 19 18 18 18 17 17 17 16 14 12 12 13 13 13 14 15 15 15 15 15 16 16 17 18 19 20 20 20 18 16 16 17 17 18 21 21
2 4 2 5 6 4 4 4 3 5 6 10 6 4 3 4 5 3 4 5 2 5 4 1 1 3 3 6 14 22 23 24 25 25 23 23 24 24 24 25 26 28 28 28 27 24 24 24 22 22 22 23 23 23 22 21 21 22 22 22 20 20 19 19 19 18 18 18 17 15 13 13 14 14 14 14 15 16 16 16 16 16 16 16 16 17 18 19 19 18 16 16 16 17 18 21 21
2 4 4 6 3 2 3 2 2 3 5 9 7 5 2 3 3 3 7 6 3 6 7 7 9 9 9 7 12 18 20 20 22 23 23 24 24 25 27 29 30 30 30 29 27 26 26 26 24 23 22 23 24 24 24 23 23 23 23 23 22 21 20 20 20 19 20 19 18 17 15 14 15 14 15 15 16 17 17 17 17 16 15 15 15 15 17 18 18 18 17 16 17 18 19 21 21
3 1 4 5 3 2 3 3 2 1 5 6 8 6 4 2 2 4 10 7 5 7 8 11 11 12 15 13 15 16 16 18 20 22 23 24 25 26 27 28 28 27 28 30 30 30 28 27 26 25 24 24 24 25 25 25 24 25 25 25 24 23 22 21 21 21 21 21 20 18 17 16 15 15 15 16 17 17 18 18 17 16 15 15 15 15 16 17 17 18 17 18 18 19 21 22 22
3 2 2 2 3 3 2 3 3 3 8 6 6 4 3 4 1 4 9 8 7 7 8 11 9 13 19 17 16 14 14 17 19 24 26 27 28 29 30 29 29 29 30 33 33 32 31 28 28 27 26 25 25 25 26 25 25 26 26 25 25 24 24 23 23 23 22 23 21 20 19 18 17 16 16 16 17 18 19 19 18 17 16 16 15 15 16 17 17 18 18 19 20 21 22 24 24
5 2 2 1 1 3 1 1 3 5 8 4 4 4 4 5 2 2 4 8 8 7 3 4 8 15 17 14 14 15 17 20 23 28 30 31 34 34 32 32 31 31 31 34 34 34 33 31 30 29 28 27 26 25 26 26 25 27 27 26 27 25 26 25 24 23 23 24 23 22 21 19 17 17 17 17 17 18 19 19 19 18 17 16 16 15 15 17 17 18 19 21 22 22 24 25 26
4 3 3 1 1 1 2 2 5 5 4 2 6 5 3 5 3 1 6 10 8 6 3 4 8 13 13 13 13 14 15 19 22 25 28 30 31 29 28 29 28 29 32 34 34 35 35 33 33 32 31 30 28 26 27 27 26 27 29 28 27 26 27 27 25 24 25 25 25 24 23 21 19 18 18 17 17 19 20 20 20 19 17 16 16 15 15 17 19 20 21 22 23 24 25 26 27
3 5 3 2 1 2 2 3 4 3 1 2 5 2 3 3 1 3 8 9 5 2 3 4 8 10 10 11 13 14 13 17 21 23 26 27 25 24 26 28 28 30 34 33 33 35 34 34 34 34 34 32 30 28 28 28 27 28 29 28 29 28 28 28 27 26 25 26 27 26 25 23 21 20 20 19 18 19 21 21 20 19 18 16 16 16 16 18 20 21 22 23 25 26 26 27 27
4 6 4 4 1 3 3 2 2 2 2 2 5 2 3 3 2 4 7 5 4 6 4 3 7 9 11 9 11 15 15 19 24 23 22 21 22 26 28 28 31 33 33 33 34 34 33 34 34 34 35 34 32 31 30 29 29 29 28 27 30 30 28 28 29 28 27 27 28 28 27 25 23 22 22 21 20 20 22 22 21 20 18 17 15 16 17 18 20 22 23 24 25 26 27 27 27
6 8 5 6 5 4 3 2 2 2 1 1 5 1 3 3 2 6 6 1 5 7 7 6 6 8 9 9 9 11 14 20 22 19 19 23 28 31 30 32 35 35 34 35 36 34 33 34 34 34 35 35 33 33 32 31 31 31 29 28 30 30 29 29 30 30 29 29 29 30 29 27 27 25 24 24 21 21 23 23 22 20 19 18 16 17 18 20 21 23 24 25 25 26 27 27 26
6 7 6 5 8 4 2 1 2 1 1 2 3 2 4 1 6 10 4 1 5 7 8 7 7 7 7 8 7 8 13 17 17 19 25 30 33 33 34 36 37 36 36 36 34 34 35 34 34 34 33 35 35 34 33 32 32 31 31 30 29 29 30 30 31 31 31 30 31 32 31 29 29 28 28 26 24 24 24 23 22 21 20 19 18 18 19 21 23 24 26 26 26 26 27 27 26
4 4 5 2 6 4 5 1 1 2 1 3 3 1 6 6 10 10 5 1 5 6 8 7 7 7 6 7 6 7 12 14 17 24 31 32 32 32 34 36 35 36 36 34 34 35 36 35 35 34 34 35 35 35 34 33 32 31 30 29 29 29 30 30 30 32 32 31 32 33 34 32 30 30 30 29 27 27 26 24 23 23 22 21 21 21 21 23 24 25 27 28 27 27 27 27 27
3 2 3 3 2 3 7 2 3 4 0 4 6 2 7 8 10 9 7 4 7 7 8 7 7 7 6 7 7 8 10 16 22 27 31 32 32 31 33 35 34 35 34 34 35 35 35 36 36 35 35 35 35 36 36 34 33 32 31 29 29 29 29 30 30 31 31 30 32 32 33 33 31 30 30 30 30 30 29 27 26 26 25 24 23 23 24 25 25 27 29 30 29 28 27 27 27
3 2 2 3 3 4 8 2 5 6 1 4 7 2 6 8 10 8 5 1 7 7 8 7 7 8 8 7 7 8 9 15 21 25 28 30 31 31 32 33 33 35 35 34 35 34 35 36 36 35 34 34 34 35 36 35 32 31 31 29 28 28 29 30 31 32 31 31 32 31 31 32 31 31 31 31 32 32 31 30 29 28 27 27 26 26 26 26 27 28 29 30 31 31 29 28 27
3 3 2 2 2 2 4 2 3 4 1 2 3 2 4 5 7 7 5 3 4 5 8 8 8 8 8 7 8 8 8 10 14 21 27 29 30 31 32 32 33 34 35 34 34 34 35 35 35 35 34 33 31 32 35 35 32 31 31 29 28 28 29 29 30 31 32 32 32 31 30 31 33 34 33 33 34 34 33 32 32 30 29 29 29 28 28 27 28 30 29 29 31 31 30 29 28
2 2 1 3 3 3 2 3 4 1 3 2 1 3 6 7 7 8 7 3 1 5 8 9 9 8 8 8 8 7 8 8 10 18 27 29 31 31 31 32 32 32 33 34 34 34 35 35 35 34 33 32 31 31 32 34 32 30 29 29 29 30 30 29 29 30 32 32 31 30 29 30 34 36 36 36 36 35 35 34 33 32 32 31 31 30 29 28 29 30 31 30 29 31 31 30 29
5 3 3 2 2 3 3 3 3 2 3 2 2 3 10 12 11 11 9 2 3 8 9 9 10 10 9 8 8 8 8 9 13 20 26 27 30 31 31 32 31 31 32 32 33 34 34 34 34 34 33 32 31 31 32 33 32 31 29 28 28 30 31 31 30 30 31 32 32 31 30 31 33 36 38 39 38 37 36 35 34 33 33 33 32 31 30 30 31 31 32 31 30 30 31 31 30
9 6 5 5 3 3 5 4 4 3 4 3 5 6 9 11 11 11 11 5 5 9 9 9 10 10 10 8 8 8 8 11 16 20 21 21 26 29 30 30 29 29 30 31 32 33 34 34 34 34 34 33 33 32 33 33 32 31 29 28 29 31 33 33 32 32 31 32 32 31 31 33 37 39 40 39 38 38 37 36 35 35 35 35 34 33 32 33 34 34 35 34 33 30 31 33 32
8 6 5 4 4 2 4 3 5 1 3 5 6 6 9 10 12 12 11 8 6 9 10 10 11 11 11 9 9 9 10 11 12 14 16 18 22 25 26 26 26 27 28 30 31 33 34 34 34 35 35 34 35 35 35 35 34 32 31 31 32 33 34 34 33 33 32 32 32 31 31 33 36 39 37 37 38 37 37 37 37 36 37 37 36 35 35 35 36 36 36 35 34 33 33 33 34
6 6 5 2 3 2 3 2 4 3 1 4 2 3 10 10 11 12 10 9 10 13 12 13 14 13 11 9 9 9 8 8 7 9 13 16 20 21 23 24 26 28 29 31 32 33 34 34 35 35 35 36 36 37 37 36 36 35 33 33 34 34 34 34 34 34 33 32 32 32 32 32 33 33 33 33 34 34 36 38 39 39 39 39 36 35 36 36 37 37 37 36 33 35 35 36 38
5 4 5 3 2 1 3 3 5 4 1 3 4 4 11 11 11 12 12 11 13 12 10 11 12 12 13 10 9 8 7 8 7 8 10 14 16 18 21 24 27 29 30 31 32 33 34 34 35 36 36 37 37 37 37 36 36 34 33 32 32 33 33 34 34 34 33 33 33 33 33 32 31 32 33 33 32 33 35 39 40 39 40 39 36 36 36 37 38 38 40 39 35 33 32 37 39
4 4 4 2 2 1 1 4 4 3 1 2 4 5 10 9 7 10 12 10 11 10 8 10 10 12 15 10 5 7 8 9 9 8 8 9 12 16 20 24 26 27 28 30 32 33 34 35 36 37 37 37 37 37 36 35 33 31 29 27 27 29 29 31 31 31 33 34 35 35 35 34 32 31 33 34 34 33 36 39 39 38 40 39 38 38 39 39 41 41 41 40 40 36 32 38 37
1 3 5 3 3 4 3 2 2 3 4 3 4 5 7 5 5 8 7 4 7 7 6 10 11 11 12 8 4 7 8 8 8 9 7 7 12 17 21 23 24 26 29 31 32 33 34 35 36 36 37 37 36 35 34 33 31 29 27 23 22 23 25 26 28 30 31 33 34 35 36 37 35 31 32 33 34 35 37 39 38 38 40 40 38 40 42 42 43 43 43 42 43 41 37 39 35
2 2 5 7 7 6 2 2 4 4 4 3 4 4 6 5 5 7 6 5 6 6 6 10 11 7 6 7 7 7 7 7 7 7 6 7 12 15 17 20 23 27 29 30 31 32 32 33 34 34 35 35 35 34 33 32 31 30 28 25 23 23 22 24 28 29 29 30 30 30 31 35 36 34 32 32 33 35 37 37 37 39 40 41 41 42 43 43 43 43 43 43 43 42 39 39 35
1 4 5 7 7 7 4 3 3 1 3 3 4 2 5 7 5 9 8 8 10 8 8 11 12 7 4 6 7 6 6 6 5 5 5 7 11 13 16 21 25 27 28 28 28 30 31 31 32 33 33 34 33 33 32 32 32 31 30 30 28 27 25 26 28 27 27 29 28 27 28 31 33 34 34 34 35 37 38 38 40 41 41 42 42 42 43 44 45 45 45 45 44 41 40 39 37
3 3 6 7 7 7 5 6 3 1 3 4 4 4 3 6 6 8 7 8 11 11 11 13 11 7 6 6 7 6 5 5 5 6 6 7 11 15 18 21 24 26 26 26 27 29 30 30 30 30 31 31 31 31 31 31 31 31 31 31 31 30 29 28 28 27 27 27 28 29 29 31 32 34 35 37 39 40 41 41 41 41 41 42 42 43 44 45 45 45 44 44 43 41 40 41 41
4 4 7 6 7 7 5 6 3 2 2 5 4 2 2 6 7 5 3 3 9 11 12 13 9 7 7 7 8 7 5 5 6 6 6 8 12 16 18 19 21 23 23 24 26 27 28 28 28 27 28 29 29 29 29 29 30 31 31 31 31 30 29 26 25 26 27 26 28 30 31 31 32 34 36 38 39 40 40 40 39 39 40 41 42 42 43 43 44 44 45 43 42 42 42 41 41
3 5 7 5 6 6 5 5 3 3 2 5 5 4 2 5 6 5 3 1 7 10 9 9 7 7 7 7 7 6 4 5 6 4 5 7 11 14 15 15 17 19 21 22 23 24 25 25 26 26 27 27 28 28 28 29 30 30 31 32 31 29 26 25 24 24 26 27 28 31 32 32 32 34 36 36 37 38 38 38 38 39 40 41 43 43 42 43 43 44 45 46 45 44 43 42 41
6 6 7 7 6 5 4 3 4 3 3 7 7 5 1 4 6 4 3 4 6 6 7 8 7 7 6 4 4 3 2 4 5 3 2 5 8 9 11 14 15 15 17 19 20 21 22 23 24 25 26 26 27 27 28 29 30 31 32 31 31 29 27 26 25 25 26 27 29 31 34 34 33 35 36 36 37 37 37 38 38 39 40 41 43 43 42 43 43 44 45 46 46 45 44 43 42
6 5 5 4 4 4 4 4 4 1 5 6 5 1 1 3 6 5 6 7 6 6 6 7 6 7 7 2 1 2 3 2 3 4 1 2 4 7 10 13 13 13 15 17 19 20 21 22 24 25 26 26 27 27 28 29 30 31 32 32 32 31 29 28 28 27 27 28 30 31 33 35 35 35 36 37 38 38 38 39 39 39 40 41 43 43 43 43 43 44 44 44 45 44 43 43 42
5 5 6 4 2 3 2 3 0 3 6 4 3 1 2 5 7 7 9 10 8 7 8 7 6 5 6 2 4 3 3 2 2 3 2 3 5 7 11 12 12 13 15 16 17 19 20 22 23 25 26 26 27 27 28 29 30 32 32 33 33 32 31 30 29 29 29 29 30 31 33 35 36 36 37 38 39 39 39 39 40 40 40 41 42 43 43 43 43 43 43 44 44 43 43 42 43
4 5 6 5 3 2 3 3 2 4 4 3 3 1 3 4 5 8 11 11 8 6 7 8 7 6 5 3 5 4 4 4 4 3 3 4 6 9 12 12 12 14 15 15 16 18 20 21 23 25 26 26 26 27 28 30 31 32 32 33 33 33 32 31 30 29 29 29 30 32 34 35 37 38 39 39 39 38 39 39 40 40 41 41 42 43 43 43 43 44 43 44 44 44 44 43 44
4 4 5 6 5 5 4 4 3 4 3 3 3 1 4 3 3 7 9 9 8 6 7 6 6 6 3 1 3 4 5 5 5 5 5 6 9 11 12 13 14 15 14 15 16 18 19 21 23 25 25 26 27 28 29 30 32 32 32 33 33 33 33 32 31 30 29 30 30 32 34 35 37 39 40 39 38 38 38 38 39 40 41 41 42 42 42 42 43 43 42 43 43 43 43 43 44
2 3 5 3 5 5 2 3 5 4 1 2 2 3 5 4 6 8 6 7 8 7 6 5 8 6 1 2 3 5 6 6 5 5 6 8 12 13 14 15 16 15 15 15 16 17 19 21 23 24 25 26 27 28 30 31 32 32 32 33 33 33 33 32 31 30 30 30 31 32 33 35 36 38 39 40 40 40 40 39 39 40 41 41 42 41 42 42 42 42 42 42 43 43 43 43 44
2 3 3 5 4 7 4 1 0 3 1 3 2 4 5 3 7 9 5 5 7 8 7 7 8 5 4 4 5 5 7 6 6 6 6 8 11 14 16 18 17 16 16 15 14 16 18 20 22 24 25 26 27 28 30 30 31 32 32 33 33 34 34 34 32 31 31 30 31 32 33 34 36 37 38 40 41 40 41 41 41 40 40 41 41 42 42 43 42 42 42 43 44 43 43 43 44
5 3 6 3 2 4 4 2 2 3 3 5 1 5 6 2 5 7 5 1 6 8 7 8 9 6 4 5 6 7 8 6 6 7 7 9 11 13 17 18 17 16 16 14 12 13 16 18 21 23 25 27 28 28 29 30 31 32 32 33 33 34 34 34 33 32 31 30 32 33 34 35 36 37 38 38 38 39 41 43 42 41 40 40 41 41 42 43 42 42 43 43 43 43 43 44 45
5 4 4 4 2 1 2 3 2 1 3 4 4 5 5 4 5 5 2 4 7 9 8 8 10 9 8 5 4 7 8 6 6 7 7 8 10 14 16 15 14 13 14 14 11 11 14 17 20 22 25 26 26 27 28 29 30 31 32 32 33 33 34 34 33 32 31 31 32 33 34 34 34 35 37 37 36 38 41 43 43 42 41 41 41 42 42 43 42 42 42 42 42 42 43 43 45
3 1 2 3 2 4 3 3 3 4 3 3 4 5 4 6 6 6 8 9 8 8 8 8 10 10 9 6 4 6 8 7 7 7 7 7 9 13 13 11 11 11 11 12 12 12 13 16 19 22 25 26 27 28 28 29 30 31 32 32 32 33 33 33 33 33 33 33 33 34 34 34 34 36 37 37 38 40 41 43 44 44 42 42 42 42 43 43 43 42 42 42 42 42 43 43 44
3 3 4 3 1 2 2 1 3 4 4 3 2 4 6 6 4 8 10 9 8 9 8 8 9 8 8 7 6 6 7 7 7 7 6 6 8 9 8 8 10 11 11 11 13 13 11 15 19 22 24 26 27 29 29 29 30 30 31 32 32 33 33 33 34 34 34 34 33 35 35 35 36 38 39 39 40 40 41 42 44 44 44 43 43 44 44 44 43 43 43 43 42 43 43 43 43
7 6 8 7 5 4 3 3 1 2 3 4 3 5 8 5 4 6 7 6 7 7 7 6 7 7 7 7 6 5 6 7 6 6 5 5 7 5 5 8 11 13 13 12 14 14 12 15 19 21 23 26 27 28 28 29 29 30 31 32 32 33 32 33 34 34 35 34 33 34 36 36 37 38 38 39 39 39 40 41 42 43 44 44 44 44 45 44 44 43 43 43 43 43 43 42 42
Wind_Direction
351 333 213 161 113 122 36 68 72 326 70 86 215 116 151 196 163 117 74 350 50 327 292 357 37 79 99 116 140 137 104 147 170 143 212 209 150 154 159 163 164 158 158 156 154 151 148 147 145 142 139 137 134 130 125 120 114 111 109 108 105 101 95 88 84 81 78 75 76 81 84 85 85 86 87 86 88 97 99 97 92 87 84 82 83 83 84 87 87 84 80 81 85 88 89 90 85
358 335 122 120 65 97 232 73 94 336 54 80 279 137 160 357 69 143 188 178 164 183 113 90 76 75 86 109 127 107 47 344 183 156 175 145 146 154 155 162 165 161 161 159 157 152 150 149 146 143 140 139 136 133 128 123 118 113 111 111 110 106 100 93 88 84 81 78 79 82 87 89 88 89 90 89 85 93 97 95 92 88 85 84 85 85 88 91 88 84 81 81 83 86 87 88 86
11 102 95 144 64 64 69 42 93 71 75 134 259 255 111 87 138 194 213 188 184 169 125 98 81 79 81 75 58 78 54 322 139 105 122 142 149 165 166 166 165 164 163 161 160 155 151 150 148 145 142 141 139 136 132 127 123 117 115 114 115 111 105 99 92 89 86 83 83 87 92 94 94 92 93 97 90 91 95 91 90 88 86 87 89 88 93 96 91 86 83 82 82 85 88 89 89
34 99 82 142 72 36 58 48 135 118 118 186 207 268 198 144 172 206 226 223 238 185 145 83 58 32 85 93 67 79 134 284 173 108 143 159 160 169 174 171 166 165 164 163 163 158 153 153 151 148 146 145 143 139 136 132 126 121 119 119 118 114 110 103 97 93 90 87 87 91 96 98 99 96 96 100 97 92 92 90 89 86 87 93 93 91 97 98 92 87 86 87 86 84 86 87 91
40 97 64 82 80 45 82 84 104 105 168 183 155 259 228 172 170 190 237 261 274 131 128 97 71 320 70 102 122 106 161 143 175 174 145 158 156 159 166 166 166 166 165 166 166 161 157 156 154 152 149 148 147 144 141 137 132 128 124 124 122 118 114 107 101 97 93 91 90 94 98 102 102 100 99 100 99 96 93 92 91 89 92 97 96 95 99 99 94 91 90 92 91 85 84 87 91
81 99 54 55 81 141 97 107 110 116 206 166 149 235 216 191 175 171 193 247 293 64 105 95 122 128 64 16 74 122 190 133 159 181 152 150 155 158 160 162 167 167 167 168 168 166 161 160 158 156 153 152 150 148 146 142 138 134 131 129 128 124 119 111 106 102 98 95 93 95 98 104 106 104 103 101 100 98 98 95 96 97 97 97 99 101 102 102 98 95 95 95 94 89 85 88 91
120 105 34 54 33 41 96 137 150 179 214 168 163 180 190 211 190 150 137 154 8 14 63 95 132 111 77 326 90 19 290 182 161 170 157 149 155 162 164 166 168 167 169 170 171 170 166 165 162 159 157 156 154 152 150 146 142 139 135 132 133 130 124 118 111 107 103 99 94 94 98 103 109 109 106 103 102 102 102 98 99 103 99 96 101 106 104 102 100 99 99 98 97 92 87 89 92
97 115 28 84 39 20 91 109 172 181 92 165 168 169 180 195 187 143 140 153 114 11 58 133 135 98 8 44 113 321 349 178 171 164 158 150 153 161 169 172 169 167 171 173 173 173 169 169 167 163 160 159 157 156 154 150 146 143 139 136 137 135 130 124 118 113 107 102 97 96 98 102 108 110 108 106 106 105 104 102 103 104 100 97 102 109 106 101 101 101 101 100 100 98 94 93 95
63 59 34 84 91 30 58 45 50 189 160 141 147 176 178 182 178 135 132 163 167 150 99 178 139 107 153 49 102 293 13 164 166 161 161 158 157 159 171 177 173 168 170 176 177 175 173 172 170 165 163 160 158 158 157 155 151 147 143 141 142 141 136 130 124 119 113 108 102 100 99 102 107 109 110 109 108 107 106 105 106 103 101 100 103 110 108 102 102 102 102 103 103 103 102 101 101
40 25 106 75 82 57 43 210 76 142 186 177 181 180 173 181 164 130 135 156 169 126 148 167 81 104 132 96 205 289 179 156 159 163 166 167 163 161 171 179 179 173 171 176 179 179 176 174 171 167 166 161 159 161 161 161 158 152 147 146 146 146 143 138 131 125 120 114 108 104 101 103 106 110 113 111 109 108 108 107 105 103 103 101 103 111 110 105 103 103 104 106 105 106 107 107 106
35 351 95 75 65 102 179 196 196 145 183 189 219 200 180 169 132 108 120 133 196 111 144 42 83 123 96 119 253 270 171 159 163 164 166 170 169 167 171 180 184 181 176 177 181 182 177 175 173 170 168 165 163 165 166 167 165 158 151 150 150 150 149 144 138 133 129 122 116 109 106 107 109 112 113 113 111 111 110 107 106 104 105 103 105 111 109 107 105 104 107 108 109 110 109 109 108
83 332 68 88 136 171 183 166 179 161 312 163 177 230 186 140 123 142 144 138 190 123 179 201 140 140 80 298 280 193 172 171 173 165 164 170 171 171 175 183 185 184 180 179 183 183 180 178 176 174 172 169 167 167 170 170 170 162 156 157 155 155 154 148 143 141 138 130 124 116 112 113 115 117 116 115 113 113 112 110 109 107 107 105 107 111 109 112 109 106 111 111 113 113 112 111 109
113 157 88 107 183 141 141 149 189 108 349 210 189 208 150 141 162 174 154 134 158 135 219 216 145 112 93 240 297 189 196 183 176 168 166 169 174 178 180 185 185 183 182 183 185 185 183 181 180 178 175 174 170 168 171 173 173 167 163 163 161 160 158 153 149 148 146 139 132 123 118 119 120 121 120 119 118 117 117 116 113 111 111 108 111 113 111 119 118 112 115 114 115 115 113 113 111
133 151 106 131 90 113 142 133 193 135 223 241 219 181 146 161 179 166 137 123 190 174 195 211 140 116 104 197 308 234 211 187 173 171 170 170 180 183 181 184 185 182 183 187 187 187 186 185 185 182 179 178 175 171 172 175 176 172 169 168 166 166 164 158 154 155 153 148 139 130 123 123 126 124 123 124 123 123 122 121 119 117 116 113 115 113 112 123 126 122 121 118 118 116 115 115 113
138 125 90 108 52 105 166 165 166 151 211 227 194 157 114 96 139 144 150 143 213 225 150 101 127 146 171 168 218 215 196 181 167 170 172 170 175 179 181 181 183 183 183 186 187 189 189 188 188 185 183 181 180 177 175 176 179 178 175 173 171 170 169 163 159 160 159 154 146 138 130 127 130 128 125 127 129 128 127 126 124 122 120 119 117 113 117 128 132 129 127 124 121 119 118 118 116
111 106 70 85 92 161 182 176 137 136 218 217 200 132 96 339 127 140 209 149 164 290 43 47 46 329 174 172 227 193 181 173 165 167 166 164 164 168 177 178 180 181 182 185 187 191 191 191 191 190 188 185 185 182 178 178 180 182 179 178 177 174 173 168 164 164 163 161 154 148 139 134 136 135 131 132 134 133 133 132 129 127 125 123 121 121 127 134 135 132 131 129 126 123 123 122 120
64 80 65 72 156 195 194 174 164 167 211 223 240 152 120 306 357 144 247 98 116 46 41 28 355 12 167 243 245 170 168 170 168 166 162 162 160 160 167 174 178 179 183 187 189 192 194 195 194 193 191 190 189 185 182 181 181 183 182 182 181 179 177 172 169 167 168 167 164 159 149 142 142 142 138 136 139 139 139 137 135 134 131 128 128 130 135 138 139 137 134 131 129 128 127 125 123
52 84 104 167 188 194 181 184 198 176 170 191 206 165 136 158 206 174 56 54 78 69 38 14 14 22 18 352 148 156 163 169 172 171 168 166 164 163 165 170 175 180 185 188 190 194 196 196 197 196 195 193 192 188 186 184 183 185 185 185 184 183 180 176 173 172 174 172 171 168 159 151 145 145 143 139 143 145 144 144 142 139 136 134 135 137 141 143 144 142 139 135 132 132 131 128 125
88 110 102 213 208 195 189 198 206 189 170 170 180 165 156 176 170 135 123 146 117 104 18 1 25 19 37 101 139 152 162 169 175 178 177 176 176 176 174 174 176 179 183 187 190 196 197 196 198 200 198 196 195 193 191 188 186 187 188 187 186 186 184 181 178 178 179 177 176 174 167 158 149 147 146 144 145 149 150 149 147 144 142 142 143 145 146 147 149 148 145 140 137 136 135 131 128
154 111 94 232 217 203 204 195 213 243 186 153 163 165 177 209 167 143 153 163 174 171 196 133 224 231 147 143 149 154 163 171 180 184 186 189 189 188 184 183 185 185 188 191 191 196 198 197 200 202 200 198 197 196 195 192 190 191 191 189 189 189 187 185 183 182 182 182 181 178 173 165 157 151 150 151 150 153 155 153 153 151 150 149 148 148 148 149 151 152 150 146 143 140 137 133 132
142 108 169 222 190 165 228 213 264 270 173 154 149 133 188 235 174 151 143 142 247 235 212 195 202 193 170 178 171 164 169 174 183 190 193 196 197 198 196 193 194 194 194 195 196 197 197 198 200 201 201 200 198 198 198 196 194 194 194 193 193 191 190 189 188 186 184 186 185 182 178 172 166 159 155 158 157 158 159 158 159 159 156 153 152 150 149 150 151 152 152 150 146 143 140 136 135
77 2 204 207 154 152 269 291 329 73 110 125 130 142 187 179 147 153 148 160 226 229 213 207 199 174 171 178 177 175 177 181 186 193 198 201 203 204 204 203 201 199 197 198 200 199 198 198 200 201 201 200 201 200 198 199 198 198 197 196 196 194 193 192 191 189 187 188 189 186 182 177 175 168 162 161 162 163 163 164 164 164 162 156 157 155 151 152 151 151 153 149 146 145 141 138 138
98 282 270 237 191 157 270 336 353 104 111 126 148 167 148 112 233 176 163 194 224 225 207 209 204 170 170 169 170 178 185 189 192 196 199 201 204 206 206 206 205 203 201 202 202 201 200 201 201 202 202 202 203 202 199 200 202 203 201 199 199 197 196 196 194 192 190 190 191 191 188 183 180 177 172 167 167 167 167 169 169 168 167 161 162 160 155 156 154 153 154 150 147 146 142 139 138
96 193 285 291 170 124 241 3 40 98 121 158 154 125 137 152 197 136 196 230 240 256 247 197 178 156 159 161 174 187 190 194 198 201 202 203 206 207 207 206 206 206 205 205 205 204 203 202 201 202 204 204 204 203 201 201 204 206 205 203 203 200 198 199 199 196 193 192 194 194 191 190 188 186 181 174 171 171 171 173 173 173 171 167 166 166 162 159 158 157 155 151 149 148 144 140 138
85 173 223 313 10 35 316 38 56 72 101 116 113 117 201 197 178 145 235 242 242 255 10 78 137 142 157 170 185 194 195 201 205 207 208 211 212 211 212 210 208 208 208 209 209 210 209 206 203 204 206 205 205 207 206 202 204 208 206 205 205 203 201 202 203 200 196 195 197 197 195 195 195 194 189 181 176 175 174 176 178 178 176 173 171 171 169 165 161 159 156 153 151 149 146 141 140
178 156 170 133 344 319 9 55 42 43 46 64 124 127 294 252 265 269 242 237 222 176 72 89 130 144 175 183 189 193 199 206 208 210 212 216 216 217 218 213 210 212 213 211 211 213 212 207 206 207 207 207 205 208 209 204 204 208 206 205 207 208 206 205 205 204 201 198 199 200 200 200 198 198 196 187 181 179 178 180 182 181 180 179 176 173 171 169 164 161 159 155 153 151 148 144 142
157 121 112 87 39 326 26 83 350 10 24 52 151 179 315 312 318 265 263 255 155 137 151 173 151 167 189 190 197 198 202 208 208 209 211 214 215 218 219 214 214 216 215 213 213 214 212 208 207 207 208 209 206 208 211 207 205 208 207 206 209 210 209 209 207 206 205 201 202 204 204 205 202 201 200 193 185 183 182 184 186 185 185 183 180 174 169 169 166 163 163 159 157 154 149 146 145
126 116 80 14 358 335 15 96 306 350 62 90 128 148 318 1 317 232 256 285 154 164 185 199 189 194 198 198 204 202 210 215 210 205 206 209 212 215 215 214 214 215 215 216 215 213 212 210 207 206 207 209 208 208 211 210 208 210 210 209 209 210 212 212 209 208 207 203 204 206 207 208 206 204 203 198 192 189 186 186 190 191 190 186 183 178 170 169 167 165 165 162 160 157 152 149 148
125 106 85 348 0 351 307 127 303 24 110 292 92 359 297 222 233 237 258 44 159 178 200 212 213 215 210 209 213 211 219 220 210 209 213 213 214 213 214 216 215 213 216 218 217 214 213 211 208 208 207 208 210 209 210 211 210 211 212 212 210 210 211 212 211 210 209 206 206 208 208 209 209 208 205 201 198 194 190 190 194 195 196 191 185 182 175 170 169 166 166 165 162 159 155 152 151
129 80 92 35 17 340 283 322 351 114 83 346 80 278 276 247 244 253 293 312 149 178 216 222 224 229 226 221 221 224 226 219 211 216 219 219 219 216 216 219 217 216 217 217 217 216 214 212 209 209 207 209 211 210 211 211 211 212 214 214 213 212 211 211 213 213 211 208 209 210 209 209 210 211 208 203 200 196 194 196 199 199 198 195 188 185 180 173 171 169 167 166 163 162 157 155 156
108 80 67 65 99 271 295 325 119 144 350 38 90 209 267 272 270 274 292 242 169 193 228 225 230 237 235 232 228 232 231 221 220 222 223 224 223 221 221 220 218 218 218 216 217 217 214 212 211 210 210 211 212 213 213 211 211 212 213 215 215 215 213 212 214 216 215 214 214 213 210 210 211 212 211 207 203 199 197 197 201 201 199 197 192 187 182 176 174 172 170 167 162 163 160 156 157
54 106 326 349 154 254 307 294 154 157 248 55 96 219 271 278 277 280 303 182 170 208 236 236 235 235 234 236 231 235 242 234 232 231 230 229 227 225 225 224 221 220 219 218 217 215 213 213 212 212 211 211 212 212 213 214 214 214 215 216 215 216 215 214 214 215 216 216 217 217 214 213 213 213 213 211 207 203 201 199 199 201 199 196 192 187 183 179 176 173 172 172 165 161 160 157 157
2 100 196 257 156 251 311 298 220 173 174 30 111 210 270 282 274 284 324 64 147 224 251 255 245 241 236 232 233 234 246 249 243 239 235 232 230 228 227 227 225 223 221 219 216 213 211 212 212 213 213 212 211 210 212 215 216 216 218 218 217 218 218 218 217 216 218 217 216 217 217 217 215 212 212 212 210 206 204 202 199 199 198 196 192 187 184 182 179 175 171 173 170 162 159 157 154
289 55 165 219 168 176 265 285 282 124 138 229 163 207 254 270 279 289 308 28 109 245 253 258 252 249 243 235 239 236 239 249 246 240 236 233 231 230 229 229 228 225 222 220 218 216 213 212 213 214 214 213 211 210 210 212 215 217 218 218 218 219 220 220 219 218 219 219 217 217 221 221 216 212 211 212 210 207 205 204 202 200 199 196 192 188 185 182 181 178 172 172 174 168 162 158 154
187 181 159 209 187 181 230 250 240 125 122 210 171 226 257 268 279 283 284 260 206 246 249 254 254 250 247 241 241 239 240 245 243 240 238 234 231 230 229 228 226 223 221 220 219 218 216 215 214 214 214 213 212 210 210 211 214 216 218 218 218 219 220 220 219 219 219 219 220 222 225 225 220 216 213 209 207 206 203 204 205 203 201 197 192 187 184 181 178 178 175 172 172 171 169 164 157
167 174 148 156 167 217 241 255 259 152 128 224 211 221 251 262 273 279 280 265 213 247 256 257 259 256 250 241 237 240 241 245 248 248 245 239 233 230 228 225 222 221 220 219 217 216 216 215 214 213 213 212 210 208 209 210 212 215 217 218 216 216 217 217 218 219 220 219 220 223 225 224 221 217 212 206 205 206 204 204 205 204 204 199 193 190 187 184 181 179 176 172 168 164 165 164 160
137 125 111 147 158 220 259 273 305 92 139 250 231 235 256 259 267 270 277 292 273 257 255 253 253 253 250 241 234 233 236 248 258 258 252 244 238 232 226 222 218 217 217 217 216 215 216 215 214 213 212 211 210 209 209 211 212 213 215 215 215 214 214 215 215 216 217 218 218 221 222 219 216 213 208 204 204 205 205 206 205 204 203 199 198 198 194 188 182 178 174 171 170 163 158 160 162
96 121 115 111 157 207 266 251 305 3 137 271 320 284 267 258 263 267 269 280 269 250 245 250 251 254 256 245 234 232 244 263 268 258 248 240 237 229 221 217 214 214 215 215 216 217 216 215 215 214 213 212 212 213 213 215 216 216 217 217 216 215 214 215 215 215 215 216 216 217 217 214 212 211 208 205 204 204 206 206 205 205 203 199 198 197 193 187 181 179 174 170 171 168 163 162 164
82 108 120 131 192 241 305 297 314 11 106 273 359 335 277 264 256 260 255 249 254 249 237 244 251 256 260 252 237 236 254 270 268 258 246 235 228 219 214 213 213 215 216 216 218 218 217 216 217 216 216 215 215 216 217 218 220 220 221 221 219 217 216 216 217 217 216 215 215 214 213 213 213 215 213 211 210 210 210 208 206 205 203 200 198 193 189 185 181 181 179 174 170 168 166 167 169
88 109 126 186 233 167 260 291 314 3 55 275 340 318 280 282 279 265 257 248 261 269 254 245 242 243 254 258 236 224 238 253 260 262 250 230 216 208 208 210 211 212 214 215 216 217 218 218 218 217 218 218 218 218 218 219 220 219 221 223 223 219 219 218 218 219 219 218 218 217 217 216 217 218 216 215 215 214 213 210 207 205 203 203 202 196 189 187 185 183 182 178 172 168 168 171 175
26 133 140 179 200 162 189 281 326 359 9 9 2 325 287 307 323 285 285 300 281 286 288 264 250 243 256 278 257 221 228 234 241 253 248 213 204 204 206 207 207 208 212 215 217 218 220 220 220 219 219 220 220 219 218 218 218 218 218 220 222 220 220 218 217 219 219 220 222 223 223 221 220 221 219 216 215 213 211 210 208 206 205 205 204 199 194 190 188 185 183 181 179 176 174 175 178
313 219 171 171 163 152 158 10 34 30 347 334 25 354 292 312 319 281 293 317 290 311 329 283 266 258 260 275 261 235 238 239 238 247 237 209 207 206 205 206 206 209 215 218 220 221 222 223 222 220 221 221 222 222 220 219 219 219 218 217 214 213 216 217 217 219 219 220 222 226 225 222 222 224 223 220 217 215 212 212 212 210 208 206 204 200 195 190 188 187 185 184 186 185 179 177 181
240 230 167 148 128 119 121 79 62 76 256 293 53 104 266 303 293 262 274 286 281 300 311 282 275 286 277 263 259 245 245 255 257 242 213 202 203 200 203 208 209 214 219 220 221 223 224 225 224 223 223 223 223 224 222 221 220 220 220 220 218 215 216 220 221 222 224 224 224 224 222 220 221 222 222 221 220 218 216 215 214 211 209 206 202 197 194 192 191 190 190 190 191 190 184 181 185
224 225 132 131 120 122 126 101 95 227 251 318 18 124 238 293 267 256 276 287 289 290 277 265 267 284 292 279 274 266 245 237 238 223 207 206 201 200 207 211 215 220 222 221 222 225 226 227 227 226 225 225 226 226 225 224 222 221 222 222 222 221 221 224 226 226 228 228 225 222 220 219 219 219 220 220 219 218 216 214 211 209 207 204 200 198 196 195 194 192 193 194 193 193 192 189 189
238 195 127 131 125 128 118 98 98 359 7 315 317 123 208 271 270 293 340 282 278 274 260 261 275 292 291 282 275 274 258 228 215 208 209 209 204 209 215 218 222 224 225 226 227 229 229 229 229 228 228 227 227 228 228 228 226 225 224 223 224 225 226 229 232 231 230 228 225 223 221 220 220 217 218 218 216 215 215 214 212 210 208 205 202 201 199 197 195 194 194 195 195 197 199 198 194
190 140 100 75 74 83 78 93 107 37 7 261 241 174 200 269 277 310 13 222 254 266 268 271 283 284 274 272 277 285 275 225 215 218 228 216 211 217 221 225 229 229 229 231 232 232 230 230 229 229 230 230 230 230 229 230 229 227 226 225 225 227 229 231 235 236 232 228 226 224 222 222 221 216 214 215 215 214 214 214 214 213 211 209 205 202 200 198 197 197 198 198 200 201 202 202 201
132 101 66 45 31 38 45 60 79 57 291 258 230 189 174 291 277 255 218 210 226 258 288 288 290 295 283 283 300 297 247 202 199 208 263 243 224 224 227 229 233 233 233 233 233 233 232 231 231 231 232 232 231 230 230 230 230 228 228 227 228 229 228 229 231 233 231 229 227 225 224 223 223 218 214 214 214 214 214 215 217 216 213 210 207 203 201 201 200 200 201 202 202 204 204 204 205
101 85 79 63 350 10 20 1 43 91 255 266 269 243 132 246 259 253 248 251 241 236 255 267 282 298 291 286 68 255 237 220 182 148 134 263 225 219 229 231 232 233 234 233 233 233 232 232 232 231 232 231 231 230 230 230 230 229 230 230 230 230 229 227 228 228 228 227 227 226 223 221 222 219 215 214 214 215 216 216 216 215 211 209 208 206 204 204 203 203 204 204 205 206 206 206 206
78 95 101 96 338 8 353 311 18 225 247 272 302 298 202 237 249 257 263 265 254 228 227 236 232 256 271 205 157 212 241 255 239 153 156 242 229 221 227 228 226 228 233 235 235 233 233 232 232 232 232 232 231 230 230 230 230 230 231 232 232 232 229 228 228 229 229 228 227 226 221 219 219 218 215 214 214 214 215 215 214 213 211 209 208 206 205 206 205 204 206 207 207 208 208 208 208
133 142 133 134 134 124 250 268 282 258 259 292 313 270 246 274 263 244 250 259 256 238 243 245 220 229 270 232 178 205 242 252 263 258 240 245 243 236 233 230 226 228 234 236 236 235 234 234 233 233 234 233 231 231 231 231 231 233 233 234 234 232 230 229 229 230 230 229 228 227 225 222 219 218 217 215 215 215 214 214 215 214 213 212 209 207 207 207 207 208 208 209 210 211 210 210 212
175 159 135 151 161 160 203 215 212 244 276 297 308 278 200 213 258 238 237 261 276 264 257 262 253 255 304 323 178 185 226 246 257 261 255 253 252 247 243 241 233 230 233 235 237 237 236 236 236 235 235 233 232 231 231 232 233 234 234 235 235 233 232 230 230 231 232 231 230 229 230 228 224 221 219 218 218 216 216 216 216 216 214 213 212 210 209 210 210 210 210 211 212 213 212 212 213
232 126 106 175 189 145 139 188 178 178 310 290 255 238 212 209 277 273 260 282 292 286 286 300 285 269 114 130 197 198 224 236 240 247 251 254 253 252 249 247 242 236 231 230 235 238 238 239 240 239 239 237 235 234 233 234 236 236 235 235 235 234 233 231 232 233 233 233 232 231 232 233 231 225 221 220 219 218 219 220 218 216 215 214 214 214 213 213 212 212 212 213 214 214 214 214 215
174 142 181 217 181 117 110 234 101 89 254 268 217 250 284 327 292 289 306 290 286 301 305 292 275 248 167 188 211 219 231 231 233 233 235 246 248 247 246 246 245 241 234 230 233 238 242 244 243 243 242 239 237 237 236 237 236 236 236 236 236 235 233 233 233 234 234 234 234 234 235 237 236 230 225 222 221 220 221 222 219 217 215 214 215 215 214 214 213 213 213 213 216 216 216 216 215
129 178 214 195 113 84 106 192 353 42 247 271 252 245 280 317 276 308 3 222 255 283 281 264 266 265 251 231 202 213 229 232 246 245 241 250 247 245 244 243 244 244 242 239 237 241 245 247 247 247 245 242 241 240 239 239 238 237 238 237 237 237 236 236 236 235 236 235 235 234 233 235 236 234 228 224 224 226 224 222 219 218 217 216 216 216 216 215 214 214 214 215 216 216 216 216 217
133 185 186 118 130 189 108 159 193 154 232 276 291 272 262 212 229 294 324 201 227 255 257 256 264 267 275 269 214 226 239 237 249 248 242 244 239 240 242 242 245 247 248 247 243 241 244 247 249 250 251 251 249 246 244 241 240 239 240 240 239 239 239 239 238 236 236 235 234 232 230 232 237 238 233 228 229 232 228 223 220 219 219 218 218 218 217 216 215 214 215 216 216 216 216 217 218
65 91 116 98 142 175 164 161 166 168 197 251 302 312 269 227 212 207 222 222 219 237 253 259 261 262 272 275 229 229 237 230 231 231 231 233 231 236 239 245 256 258 256 253 245 244 246 248 250 251 253 253 250 248 246 244 243 242 242 242 241 241 240 240 240 237 236 236 236 233 232 234 237 239 236 233 233 234 230 225 222 221 220 219 218 218 217 216 216 216 217 217 217 217 217 218 219
151 161 177 186 116 115 159 170 125 139 164 194 272 289 263 249 209 187 210 228 221 224 235 245 257 262 265 257 225 218 229 231 228 223 224 231 234 241 250 265 271 267 265 257 247 250 254 251 251 251 252 252 251 249 247 246 246 244 244 243 242 242 242 241 240 238 237 237 237 235 235 236 236 236 235 235 235 235 232 227 224 222 222 220 218 217 217 216 216 218 219 219 219 219 218 219 218
172 184 197 188 162 132 158 237 239 124 160 176 183 261 267 250 201 192 208 226 231 231 225 240 266 263 257 260 244 228 234 239 239 234 234 244 248 261 282 280 276 273 273 267 255 255 260 260 258 254 253 254 253 252 250 249 249 247 246 246 245 245 243 242 240 239 238 238 237 236 235 234 234 234 236 236 237 237 236 232 227 225 223 221 219 218 217 216 216 218 220 221 221 220 219 218 217